TimeEST,TemperatureF,Dew PointF,Humidity,Sea Level PressureIn,VisibilityMPH,Wind Direction,Wind SpeedMPH,Gust SpeedMPH,PrecipitationIn,Events,Conditions,WindDirDegrees,DateUTC
12:53 AM,78.1,73.0,84,29.94,10.0,South,8.1,-,N/A,,Overcast,170,2012-12-11 05:53:00
1:53 AM,78.1,73.0,84,29.95,10.0,South,9.2,-,N/A,,Mostly Cloudy,190,2012-12-11 06:53:00
2:53 AM,77.0,73.0,88,29.93,10.0,South,8.1,-,0.01,Rain,Light Rain,170,2012-12-11 07:53:00
3:53 AM,75.9,73.0,91,29.93,10.0,South,10.4,-,0.05,Rain,Light Rain,180,2012-12-11 08:53:00
4:53 AM,73.0,69.1,87,29.92,10.0,SSW,10.4,-,0.02,,Overcast,200,2012-12-11 09:53:00
5:53 AM,72.0,69.1,91,29.94,10.0,SW,4.6,-,N/A,,Mostly Cloudy,230,2012-12-11 10:53:00
6:53 AM,72.0,69.1,91,29.95,10.0,SSW,4.6,-,N/A,,Mostly Cloudy,210,2012-12-11 11:53:00
7:53 AM,73.0,70.0,90,29.98,10.0,SW,4.6,-,N/A,,Mostly Cloudy,230,2012-12-11 12:53:00
8:53 AM,75.9,70.0,82,29.98,10.0,SSW,4.6,-,N/A,,Clear,200,2012-12-11 13:53:00
9:53 AM,78.1,70.0,76,30.00,10.0,SSW,6.9,-,N/A,,Mostly Cloudy,200,2012-12-11 14:53:00
10:53 AM,82.0,72.0,71,30.01,10.0,South,10.4,-,N/A,,Mostly Cloudy,190,2012-12-11 15:53:00
11:53 AM,82.9,73.0,72,30.01,10.0,SSW,10.4,-,N/A,,Mostly Cloudy,200,2012-12-11 16:53:00
12:53 PM,84.9,72.0,65,29.96,10.0,South,9.2,-,N/A,,Mostly Cloudy,170,2012-12-11 17:53:00
1:53 PM,82.9,73.9,74,29.94,10.0,SSE,13.8,-,N/A,,Mostly Cloudy,150,2012-12-11 18:53:00
2:53 PM,82.0,75.0,79,29.94,10.0,SSE,15.0,-,0.00,,Overcast,160,2012-12-11 19:53:00
3:53 PM,82.0,73.9,76,29.94,10.0,SSE,12.7,-,N/A,,Mostly Cloudy,160,2012-12-11 20:53:00
4:53 PM,80.1,75.0,85,29.94,10.0,South,13.8,-,0.00,,Mostly Cloudy,170,2012-12-11 21:53:00
5:53 PM,79.0,73.9,84,29.95,10.0,South,13.8,-,N/A,,Mostly Cloudy,170,2012-12-11 22:53:00
6:53 PM,79.0,73.9,84,29.96,10.0,SSE,11.5,18.4,N/A,,Mostly Cloudy,150,2012-12-11 23:53:00
7:38 PM,78.8,73.4,83,29.98,10.0,SSE,11.5,-,N/A,Thunderstorm,Thunderstorm,150,2012-12-12 00:38:00
7:53 PM,79.0,73.9,84,29.99,10.0,SSE,11.5,-,N/A,Thunderstorm,Thunderstorm,160,2012-12-12 00:53:00
8:06 PM,77.0,71.6,83,30.00,10.0,West,8.1,-,N/A,Thunderstorm,Thunderstorm,280,2012-12-12 01:06:00
8:37 PM,73.4,68.0,83,30.02,10.0,North,13.8,-,0.00,Rain-Thunderstorm,Light Thunderstorms and Rain,10,2012-12-12 01:37:00
8:44 PM,73.4,68.0,83,30.02,10.0,NNE,11.5,20.7,0.00,Rain,Light Rain,20,2012-12-12 01:44:00
8:53 PM,73.0,69.1,87,30.03,10.0,NNE,8.1,-,0.00,Rain,Light Rain,20,2012-12-12 01:53:00
9:00 PM,73.4,69.8,88,30.04,2.0,NNW,4.6,-,0.05,Rain,Heavy Rain,340,2012-12-12 02:00:00
9:13 PM,71.6,69.8,94,30.04,1.8,Calm,Calm,-,0.36,Rain,Heavy Rain,0,2012-12-12 02:13:00
9:23 PM,71.6,69.8,94,30.04,6.0,ENE,3.5,-,0.40,Rain,Light Rain,60,2012-12-12 02:23:00
9:53 PM,73.0,71.1,93,30.05,10.0,NNE,4.6,-,0.41,Rain,Light Rain,20,2012-12-12 02:53:00
10:53 PM,73.0,70.0,90,30.05,10.0,Calm,Calm,-,0.04,Rain,Light Rain,0,2012-12-12 03:53:00
11:53 PM,73.0,69.1,87,30.05,10.0,Calm,Calm,-,0.00,,Overcast,0,2012-12-12 04:53:00